Mount Ida, AR

7:56 AM CDT on April 29, 2017 (GMT -0500)
Mount Ida

Weather History for KMWT - January, 2014

Change the Weather History Date:

Tuesday, January 21, 2014

  Actual Average (KHOT) Record (KHOT)
Temperature  
Mean Temperature 34 °F -  
Max Temperature 48 °F 48 °F 74 °F (1986)
Min Temperature 19 °F 31 °F 0 °F (1985)
Degree Days  
Heating Degree Days 30    
Moisture  
Dew Point 11 °F    
Average Humidity 43    
Maximum Humidity 74    
Minimum Humidity 26    
Precipitation  
Precipitation 0.00 in - - ()
Sea Level Pressure  
Sea Level Pressure 30.24 in    
Wind  
Wind Speed 8 mph (NW)    
Max Wind Speed 15 mph    
Max Gust Speed 28 mph    
Visibility 10 miles    
Events      
Averages and records for this station are not official NWS values.
T = Trace of Precipitation, MM = Missing Value Source: NWS Daily Summary

Daily Weather History Graph

Daily Weather History Graph

Search for Another Location

Airport or City:

Trip Planner

Search our weather history database for the weather conditions in past years. The results will help you decide how hot, cold, wet, or windy it might be!

Date:

Astronomy

Jan. 21, 2014 Rise Set
Actual Time 7:18 AM CST 5:32 PM CST
Civil Twilight 6:51 AM CST 5:59 PM CST
Nautical Twilight 6:21 AM CST 6:30 PM CST
Astronomical Twilight 5:51 AM CST 7:00 PM CST
Moon 10:50 PM CST (1/21) 10:03 AM CST (1/21)
Length of Visible Light 11h 08m
Length of Day
10h 14m
Waning Gibbous, 74% of the Moon is Illuminated
Jan 21
Waning Gibbous
Jan 23
Last Quarter
Jan 30
New
Feb 6
First Quarter
Feb 14
Full

Hourly Weather History & Observations

Time (CST) Temp. Windchill Dew Point Humidity Pressure Visibility Wind Dir Wind Speed Gust Speed Precip Events Conditions
12:53 AM 48.0 °F - 19.0 °F 32% 30.08 in 10.0 mi NW 9.2 mph 24.2 mph N/A   Clear
1:53 AM 45.0 °F 40.1 °F 21.0 °F 39% 30.08 in 10.0 mi WNW 9.2 mph - N/A   Clear
2:53 AM 45.0 °F 38.9 °F 21.0 °F 39% 30.09 in 10.0 mi NW 12.7 mph 24.2 mph N/A   Clear
3:53 AM 42.1 °F 38.4 °F 19.0 °F 40% 30.12 in 10.0 mi WNW 5.8 mph 18.4 mph N/A   Clear
4:53 AM 37.9 °F 29.2 °F 12.9 °F 36% 30.14 in 10.0 mi NNW 15.0 mph 27.6 mph N/A   Clear
5:53 AM 34.0 °F 26.0 °F 12.0 °F 40% 30.18 in 10.0 mi NW 10.4 mph 24.2 mph N/A   Clear
6:53 AM 30.9 °F 21.7 °F 12.9 °F 47% 30.23 in 10.0 mi NNW 11.5 mph 20.7 mph N/A   Clear
7:53 AM 28.9 °F 20.4 °F 12.0 °F 49% 30.28 in 10.0 mi NNW 9.2 mph 19.6 mph N/A   Clear
8:53 AM 28.9 °F 21.1 °F 10.9 °F 47% 30.32 in 10.0 mi NNW 8.1 mph 18.4 mph N/A   Clear
9:53 AM 28.9 °F 20.4 °F 10.0 °F 45% 30.35 in 10.0 mi NW 9.2 mph 19.6 mph N/A   Clear
10:53 AM 30.9 °F 23.5 °F 9.0 °F 40% 30.36 in 10.0 mi NNW 8.1 mph 19.6 mph N/A   Clear
11:53 AM 33.1 °F 27.7 °F 9.0 °F 37% 30.34 in 10.0 mi Variable 5.8 mph - N/A   Clear
12:53 PM 35.1 °F 27.4 °F 8.1 °F 33% 30.32 in 10.0 mi NNW 10.4 mph - N/A   Clear
1:53 PM 35.1 °F 26.9 °F 6.1 °F 30% 30.27 in 10.0 mi NW 11.5 mph 18.4 mph N/A   Clear
2:53 PM 37.0 °F 32.4 °F 6.1 °F 28% 30.27 in 10.0 mi Variable 5.8 mph - N/A   Clear
3:53 PM 37.0 °F 32.4 °F 5.0 °F 26% 30.27 in 10.0 mi Variable 5.8 mph - N/A   Clear
4:53 PM 34.0 °F 28.8 °F 6.1 °F 31% 30.26 in 10.0 mi Variable 5.8 mph - N/A   Clear
5:53 PM 30.9 °F - 6.1 °F 35% 30.25 in 10.0 mi Calm Calm - N/A   Clear
6:53 PM 27.0 °F - 8.1 °F 45% 30.27 in 10.0 mi Calm Calm - N/A   Clear
7:53 PM 25.0 °F - 10.9 °F 55% 30.25 in 10.0 mi Calm Calm - N/A   Clear
8:53 PM 23.0 °F - 10.0 °F 58% 30.25 in 10.0 mi Calm Calm - N/A   Clear
9:53 PM 23.0 °F - 9.0 °F 55% 30.25 in 10.0 mi Calm Calm - N/A   Clear
10:53 PM 21.0 °F - 12.9 °F 71% 30.26 in 10.0 mi Calm Calm - N/A   Clear
11:53 PM 19.9 °F - 12.9 °F 74% 30.23 in 10.0 mi Calm Calm - N/A   Clear